Location: Doverdale
(52.2833°N, 2.2000°W)
Time: 02:53:47
(UTC+00:00)

Cosmos 1980 Rocket - Pass Details

Date: 10 March 2021
Orbit: 828 x 851 km, 71.0° (Epoch: 15 April)

Event Time Altitude Azimuth Distance (km) Brightness Sun altitude
Rises 20:36:27 0° 305° (NW) 3,423 6.8 -23.4°
Reaches altitude 10° 20:40:57 10° 338° (NNW) 2,490 5.3 -24.0°
Maximum altitude 20:42:50 12° 357° (N) 2,381 4.9 -24.2°
Drops below altitude 10° 20:44:43 10° 17° (NNE) 2,491 4.8 -24.5°
Enters shadow 20:47:48 - 42° (NE) 3,061 5.0 -24.9°
